Location: Newark
(28.4500°N, 16.2500°W)
Time: 04:02:50
(UTC+00:00)

UKube-1 - Visible Passes

Search period start: 19 September 2019 00:00
Search period end: 29 September 2019 00:00
Orbit: 614 x 619 km, 98.4° (Epoch: 18 September)

Date Brightness Start Highest point End Pass type
(mag) Time Alt. Az. Time Alt. Az. Time Alt. Az.
19 Sep ? 04:54:39 10° SE 04:58:28 32° ENE 05:02:17 10° N visible
20 Sep ? 05:10:21 10° SSE 05:14:30 50° ENE 05:18:41 10° N visible
21 Sep ? 05:26:18 10° SSE 05:30:35 82° ENE 05:34:54 10° N visible
22 Sep ? 05:42:27 10° S 05:46:41 61° WSW 05:50:58 10° NNW visible
23 Sep ? 04:25:16 10° E 04:27:15 13° ENE 04:29:15 10° NE visible
23 Sep ? 05:58:50 10° SSW 06:02:49 37° W 06:06:51 10° NNW visible
24 Sep ? 04:40:05 10° ESE 04:43:13 20° ENE 04:46:23 10° NNE visible
24 Sep ? 06:15:31 10° SSW 06:18:59 24° W 06:22:29 10° NW visible
25 Sep ? 04:55:27 10° SE 04:59:14 31° ENE 05:03:02 10° N visible
25 Sep ? 06:32:39 10° SW 06:35:10 15° W 06:37:43 10° WNW visible
26 Sep ? 05:11:08 10° SSE 05:15:16 49° ENE 05:19:26 10° N visible
27 Sep ? 05:27:03 10° SSE 05:31:21 80° ENE 05:35:39 10° N visible
28 Sep ? 05:43:11 10° S 05:47:27 63° WSW 05:51:44 10° NNW visible
28 Sep ? 19:13:53 10° NW 19:16:14 15° WNW 19:18:35 10° WSW visible
